| time (UTC) | temp F | wind direction | speed MPH | gust MPH | rain 1hr in | rain 24hr in | rain mn in | humidity % | barometer mb |
| 20260505053157 | 23 | 295 | 1.0 | 6.0 | 0.00 | 0.00 | 0.00 | 74 | 1012.9 |
| 20260505052657 | 22 | 295 | 4.0 | 8.0 | 0.00 | 0.00 | 0.00 | 74 | 1012.9 |
| 20260505052558 | 22 | 319 | 3.0 | 8.0 | 0.00 | 0.00 | 0.00 | 74 | 1012.9 |
| 20260505052157 | 22 | 279 | 0.0 | 5.0 | 0.00 | 0.00 | 0.00 | 75 | 1012.9 |
| 20260505051657 | 22 | 278 | 0.0 | 5.0 | 0.00 | 0.00 | 0.00 | 76 | 1012.9 |
| 20260505051458 | 22 | 296 | 1.0 | 5.0 | 0.00 | 0.00 | 0.00 | 76 | 1012.9 |
| 20260505051157 | 21 | 303 | 5.0 | 5.0 | 0.00 | 0.00 | 0.00 | 77 | 1012.9 |
| 20260505050657 | 21 | 278 | 0.0 | 5.0 | 0.00 | 0.00 | 0.00 | 77 | 1012.9 |
| 20260505050358 | 21 | 298 | 0.0 | 3.0 | 0.00 | 0.00 | 0.00 | 78 | 1012.9 |
| 20260505050157 | 21 | 291 | 0.0 | 4.0 | 0.00 | 0.00 | 0.00 | 78 | 1013.0 |
| 20260505041657 | 19 | 295 | 0.0 | 2.0 | 0.00 | 0.00 | 0.00 | 81 | 1012.6 |
| 20260505041157 | 19 | 285 | 2.0 | 3.0 | 0.00 | 0.00 | 0.00 | 81 | 1012.5 |
| 20260505040858 | 19 | 42 | 0.0 | 0.0 | 0.00 | 0.00 | 0.00 | 81 | 1012.6 |
| 20260505040657 | 19 | 42 | 0.0 | 0.0 | 0.00 | 0.00 | 0.00 | 81 | 1012.5 |
| 20260505040157 | 19 | 313 | 0.0 | 0.0 | 0.00 | 0.00 | 0.00 | 81 | 1012.5 |
| 20260505035758 | 19 | 313 | 0.0 | 0.0 | 0.00 | 0.00 | 0.00 | 81 | 1012.4 |
| 20260505035657 | 19 | 313 | 0.0 | 0.0 | 0.00 | 0.00 | 0.00 | 81 | 1012.4 |
| 20260505035157 | 19 | 313 | 0.0 | 0.0 | 0.00 | 0.00 | 0.00 | 80 | 1012.2 |
| 20260505034657 | 19 | 313 | 0.0 | 0.0 | 0.00 | 0.00 | 0.00 | 80 | 1012.1 |
| 20260505034157 | 19 | 313 | 0.0 | 0.0 | 0.00 | 0.00 | 0.00 | 80 | 1012.2 |
| 20260505033657 | 19 | 313 | 0.0 | 0.0 | 0.00 | 0.00 | 0.00 | 80 | 1012.1 |
| 20260505033558 | 19 | 313 | 0.0 | 0.0 | 0.00 | 0.00 | 0.00 | 80 | 1012.1 |
| 20260505033157 | 19 | 313 | 0.0 | 0.0 | 0.00 | 0.00 | 0.00 | 80 | 1012.2 |
| 20260505032657 | 19 | 313 | 0.0 | 0.0 | 0.00 | 0.00 | 0.00 | 80 | 1012.2 |
| 20260505032458 | 19 | 313 | 0.0 | 0.0 | 0.00 | 0.00 | 0.00 | 80 | 1012.4 |
| 20260505032157 | 19 | 313 | 0.0 | 0.0 | 0.00 | 0.00 | 0.00 | 80 | 1012.4 |
| 20260505031657 | 20 | 313 | 0.0 | 0.0 | 0.00 | 0.00 | 0.00 | 79 | 1012.2 |
| 20260505031358 | 20 | 313 | 0.0 | 0.0 | 0.00 | 0.00 | 0.00 | 80 | 1012.1 |
| 20260505031157 | 20 | 313 | 0.0 | 0.0 | 0.00 | 0.00 | 0.00 | 79 | 1012.1 |
| 20260505030657 | 20 | 313 | 0.0 | 4.0 | 0.00 | 0.00 | 0.00 | 80 | 1012.0 |
| 20260505030258 | 20 | 264 | 1.0 | 4.0 | 0.00 | 0.00 | 0.00 | 80 | 1012.1 |
| 20260505030157 | 20 | 288 | 1.0 | 4.0 | 0.00 | 0.00 | 0.00 | 80 | 1012.0 |
| 20260505025657 | 20 | 258 | 0.0 | 3.0 | 0.00 | 0.00 | 0.00 | 80 | 1012.0 |
| 20260505025157 | 20 | 300 | 0.0 | 3.0 | 0.00 | 0.00 | 0.00 | 80 | 1011.9 |
| 20260505024657 | 19 | 277 | 0.0 | 3.0 | 0.00 | 0.00 | 0.00 | 80 | 1011.9 |
| 20260505024157 | 19 | 282 | 2.0 | 3.0 | 0.00 | 0.00 | 0.00 | 80 | 1011.9 |
| 20260505024058 | 19 | 132 | 0.0 | 0.0 | 0.00 | 0.00 | 0.00 | 80 | 1012.0 |
| 20260505023657 | 19 | 132 | 0.0 | 2.0 | 0.00 | 0.00 | 0.00 | 80 | 1012.0 |
| 20260505023157 | 19 | 268 | 0.0 | 1.0 | 0.00 | 0.00 | 0.00 | 79 | 1011.9 |
| 20260505023000 | 19 | 268 | 0.0 | 2.0 | 0.00 | 0.00 | 0.00 | 79 | 1011.9 |
| 20260505022657 | 20 | 248 | 0.0 | 3.0 | 0.00 | 0.00 | 0.00 | 79 | 1011.9 |
| 20260505022157 | 20 | 229 | 2.0 | 4.0 | 0.00 | 0.00 | 0.00 | 79 | 1011.9 |
| 20260505021858 | 20 | 227 | 0.0 | 4.0 | 0.00 | 0.00 | 0.00 | 79 | 1011.8 |
| 20260505021657 | 20 | 227 | 0.0 | 4.0 | 0.00 | 0.00 | 0.00 | 79 | 1011.8 |
| 20260505021157 | 20 | 291 | 2.0 | 4.0 | 0.00 | 0.00 | 0.00 | 79 | 1011.8 |
| 20260505020758 | 20 | 241 | 4.0 | 4.0 | 0.00 | 0.00 | 0.00 | 79 | 1011.8 |
| 20260505020657 | 20 | 296 | 0.0 | 3.0 | 0.00 | 0.00 | 0.00 | 79 | 1011.8 |
| 20260505020157 | 20 | 279 | 2.0 | 3.0 | 0.00 | 0.00 | 0.00 | 79 | 1011.8 |
| 20260505015657 | 20 | 306 | 0.0 | 3.0 | 0.00 | 0.00 | 0.00 | 78 | 1011.8 |
| 20260505015157 | 20 | 271 | 0.0 | 3.0 | 0.00 | 0.00 | 0.00 | 78 | 1011.8 |
| 20260505014657 | 21 | 271 | 0.0 | 3.0 | 0.00 | 0.00 | 0.00 | 78 | 1011.8 |
| 20260505014558 | 21 | 271 | 0.0 | 3.0 | 0.00 | 0.00 | 0.00 | 78 | 1011.8 |
| 20260505014157 | 21 | 289 | 0.0 | 3.0 | 0.00 | 0.00 | 0.00 | 78 | 1011.8 |
| 20260505013657 | 21 | 298 | 0.0 | 1.0 | 0.00 | 0.00 | 0.00 | 78 | 1011.8 |
| 20260505013458 | 21 | 292 | 0.0 | 4.0 | 0.00 | 0.00 | 0.00 | 77 | 1011.8 |
| 20260505013157 | 21 | 292 | 0.0 | 4.0 | 0.00 | 0.00 | 0.00 | 78 | 1011.8 |
| 20260505012657 | 21 | 284 | 0.0 | 0.0 | 0.00 | 0.00 | 0.00 | 78 | 1011.8 |
| 20260505012358 | 21 | 284 | 0.0 | 0.0 | 0.00 | 0.00 | 0.00 | 77 | 1011.8 |
| 20260505012157 | 21 | 284 | 0.0 | 0.0 | 0.00 | 0.00 | 0.00 | 77 | 1011.8 |
| 20260505011657 | 21 | 284 | 0.0 | 0.0 | 0.00 | 0.00 | 0.00 | 77 | 1011.7 |
| 20260505011259 | 21 | 284 | 0.0 | 4.0 | 0.00 | 0.00 | 0.00 | 77 | 1011.6 |
| 20260505011157 | 21 | 284 | 0.0 | 4.0 | 0.00 | 0.00 | 0.00 | 77 | 1011.7 |
| 20260505010657 | 21 | 298 | 1.0 | 4.0 | 0.00 | 0.00 | 0.00 | 77 | 1011.6 |
| 20260505010157 | 21 | 260 | 0.0 | 3.0 | 0.00 | 0.00 | 0.00 | 77 | 1011.6 |
| 20260505005657 | 21 | 319 | 0.0 | 2.0 | 0.00 | 0.00 | 0.00 | 77 | 1011.5 |
| 20260505005157 | 21 | 296 | 0.0 | 5.0 | 0.00 | 0.00 | 0.00 | 77 | 1011.5 |
| 20260505005058 | 21 | 296 | 1.0 | 5.0 | 0.00 | 0.00 | 0.00 | 77 | 1011.5 |
| 20260505004657 | 21 | 292 | 4.0 | 4.0 | 0.00 | 0.00 | 0.00 | 77 | 1011.5 |
| 20260505004157 | 22 | 293 | 1.0 | 6.0 | 0.00 | 0.00 | 0.00 | 77 | 1011.5 |
| 20260505003958 | 21 | 277 | 2.0 | 6.0 | 0.00 | 0.00 | 0.00 | 76 | 1011.5 |
| 20260505003657 | 21 | 306 | 0.0 | 4.0 | 0.00 | 0.00 | 0.00 | 77 | 1011.5 |
| 20260505003157 | 22 | 313 | 0.0 | 2.0 | 0.00 | 0.00 | 0.00 | 77 | 1011.5 |
| 20260505002858 | 22 | 300 | 1.0 | 4.0 | 0.00 | 0.00 | 0.00 | 77 | 1011.5 |
| 20260505002657 | 22 | 299 | 0.0 | 4.0 | 0.00 | 0.00 | 0.00 | 77 | 1011.5 |
| 20260505002157 | 22 | 288 | 0.0 | 0.0 | 0.00 | 0.00 | 0.00 | 77 | 1011.5 |
| 20260505001758 | 22 | 288 | 0.0 | 3.0 | 0.00 | 0.00 | 0.00 | 77 | 1011.5 |
| 20260505001657 | 22 | 288 | 0.0 | 5.0 | 0.00 | 0.00 | 0.00 | 77 | 1011.5 |
| 20260505001157 | 22 | 326 | 0.0 | 5.0 | 0.00 | 0.00 | 0.00 | 78 | 1011.5 |
| 20260505000657 | 22 | 300 | 3.0 | 6.0 | 0.00 | 0.00 | 0.00 | 78 | 1011.3 |
| 20260505000157 | 22 | 300 | 3.0 | 7.0 | 0.00 | 0.00 | 0.00 | 78 | 1011.2 |
| 20260504235657 | 22 | 310 | 3.0 | 6.0 | 0.00 | 0.00 | 0.00 | 78 | 1011.3 |
| 20260504235558 | 22 | 267 | 0.0 | 6.0 | 0.00 | 0.00 | 0.00 | 77 | 1011.3 |
| 20260504235157 | 22 | 288 | 1.0 | 4.0 | 0.00 | 0.00 | 0.00 | 78 | 1011.3 |
| 20260504234657 | 22 | 299 | 0.0 | 3.0 | 0.00 | 0.00 | 0.00 | 77 | 1011.3 |
| 20260504234458 | 22 | 296 | 2.0 | 2.0 | 0.00 | 0.00 | 0.00 | 77 | 1011.3 |
| 20260504234157 | 22 | 289 | 1.0 | 7.0 | 0.00 | 0.00 | 0.00 | 77 | 1011.2 |
| 20260504233657 | 22 | 285 | 0.0 | 6.0 | 0.00 | 0.00 | 0.00 | 77 | 1011.2 |
| 20260504233358 | 22 | 271 | 1.0 | 7.0 | 0.00 | 0.00 | 0.00 | 77 | 1011.1 |
| 20260504233157 | 23 | 262 | 2.0 | 8.0 | 0.00 | 0.00 | 0.00 | 77 | 1011.1 |
| 20260504232657 | 23 | 295 | 1.0 | 8.0 | 0.00 | 0.00 | 0.00 | 77 | 1011.1 |
| 20260504232259 | 22 | 330 | 4.0 | 8.0 | 0.00 | 0.00 | 0.00 | 77 | 1011.0 |
| 20260504232157 | 22 | 343 | 3.0 | 6.0 | 0.00 | 0.00 | 0.00 | 77 | 1011.1 |
| 20260504231657 | 22 | 293 | 1.0 | 5.0 | 0.00 | 0.00 | 0.00 | 78 | 1010.9 |
| 20260504231157 | 23 | 302 | 0.0 | 5.0 | 0.00 | 0.00 | 0.00 | 77 | 1010.9 |
| 20260504230657 | 23 | 310 | 4.0 | 5.0 | 0.00 | 0.00 | 0.00 | 77 | 1010.9 |
| 20260504230157 | 23 | 303 | 2.0 | 7.0 | 0.00 | 0.00 | 0.00 | 77 | 1011.0 |
| 20260504230059 | 23 | 312 | 1.0 | 7.0 | 0.00 | 0.00 | 0.00 | 77 | 1010.9 |
| 20260504225657 | 23 | 291 | 1.0 | 7.0 | 0.00 | 0.00 | 0.00 | 77 | 1010.9 |
| 20260504225157 | 23 | 300 | 4.0 | 8.0 | 0.00 | 0.00 | 0.00 | 76 | 1011.0 |
| 20260504224959 | 23 | 307 | 1.0 | 8.0 | 0.00 | 0.00 | 0.00 | 76 | 1010.9 |
| 20260504224658 | 23 | 300 | 3.0 | 7.0 | 0.00 | 0.00 | 0.00 | 76 | 1010.9 |
| 20260504224158 | 23 | 317 | 2.0 | 5.0 | 0.00 | 0.00 | 0.00 | 76 | 1010.8 |
| 20260504223859 | 23 | 285 | 0.0 | 5.0 | 0.00 | 0.00 | 0.00 | 75 | 1010.8 |
| 20260504223658 | 23 | 307 | 0.0 | 6.0 | 0.00 | 0.00 | 0.00 | 75 | 1010.8 |
| 20260504223158 | 23 | 319 | 2.0 | 9.0 | 0.00 | 0.00 | 0.00 | 74 | 1010.9 |
| 20260504222759 | 23 | 306 | 4.0 | 11.0 | 0.00 | 0.00 | 0.00 | 75 | 1010.8 |
| 20260504222658 | 23 | 298 | 3.0 | 11.0 | 0.00 | 0.00 | 0.00 | 75 | 1010.8 |
| 20260504222158 | 24 | 302 | 2.0 | 7.0 | 0.00 | 0.00 | 0.00 | 75 | 1010.9 |
| 20260504221658 | 24 | 291 | 4.0 | 9.0 | 0.00 | 0.00 | 0.00 | 75 | 1010.9 |
| 20260504221158 | 24 | 331 | 0.0 | 7.0 | 0.00 | 0.00 | 0.00 | 75 | 1010.8 |
| 20260504220838 | 24 | 315 | 4.0 | 6.0 | 0.00 | 0.00 | 0.00 | 76 | 1010.8 |
| 20260504220559 | 24 | 281 | 0.0 | 6.0 | 0.00 | 0.00 | 0.00 | 76 | 1010.8 |
| 20260504220158 | 24 | 302 | 4.0 | 7.0 | 0.00 | 0.00 | 0.00 | 76 | 1010.7 |
| 20260504215658 | 24 | 310 | 2.0 | 5.0 | 0.00 | 0.00 | 0.00 | 77 | 1010.7 |
| 20260504215459 | 24 | 274 | 0.0 | 5.0 | 0.00 | 0.00 | 0.00 | 77 | 1010.6 |
| 20260504215158 | 24 | 316 | 0.0 | 7.0 | 0.00 | 0.00 | 0.00 | 77 | 1010.6 |
| 20260504214658 | 24 | 292 | 0.0 | 5.0 | 0.00 | 0.00 | 0.00 | 77 | 1010.4 |
| 20260504214359 | 24 | 284 | 1.0 | 13.0 | 0.00 | 0.00 | 0.00 | 77 | 1010.4 |
| 20260504214158 | 24 | 281 | 0.0 | 13.0 | 0.00 | 0.00 | 0.00 | 76 | 1010.3 |
| 20260504213658 | 24 | 315 | 2.0 | 10.0 | 0.00 | 0.00 | 0.00 | 76 | 1010.2 |
| 20260504213259 | 24 | 15 | 2.0 | 8.0 | 0.00 | 0.00 | 0.00 | 76 | 1010.2 |
| 20260504213158 | 24 | 298 | 1.0 | 7.0 | 0.00 | 0.00 | 0.00 | 76 | 1010.2 |
| 20260504212658 | 25 | 319 | 4.0 | 9.0 | 0.00 | 0.00 | 0.00 | 76 | 1010.2 |
| 20260504212158 | 25 | 331 | 5.0 | 8.0 | 0.00 | 0.00 | 0.00 | 77 | 1010.2 |
| 20260504211658 | 25 | 300 | 2.0 | 15.0 | 0.00 | 0.00 | 0.00 | 78 | 1010.2 |
| 20260504211158 | 25 | 305 | 15.0 | 15.0 | 0.00 | 0.00 | 0.00 | 77 | 1010.1 |
| 20260504211059 | 25 | 309 | 8.0 | 8.0 | 0.00 | 0.00 | 0.00 | 78 | 1010.1 |
| 20260504210658 | 25 | 295 | 2.0 | 9.0 | 0.00 | 0.00 | 0.00 | 79 | 1010.1 |
| 20260504210158 | 25 | 277 | 5.0 | 12.0 | 0.00 | 0.00 | 0.00 | 78 | 1010.0 |
| 20260504210000 | 25 | 317 | 2.0 | 7.0 | 0.00 | 0.00 | 0.00 | 78 | 1010.0 |
| 20260504205658 | 26 | 319 | 3.0 | 9.0 | 0.00 | 0.00 | 0.00 | 78 | 1010.0 |
| 20260504205158 | 26 | 299 | 3.0 | 12.0 | 0.00 | 0.00 | 0.00 | 77 | 1010.0 |
| 20260504204859 | 26 | 289 | 7.0 | 12.0 | 0.00 | 0.00 | 0.00 | 78 | 1010.0 |
| 20260504204658 | 26 | 310 | 5.0 | 12.0 | 0.00 | 0.00 | 0.00 | 76 | 1010.0 |
| 20260504204158 | 26 | 326 | 4.0 | 9.0 | 0.00 | 0.00 | 0.00 | 78 | 1009.9 |
| 20260504203759 | 26 | 345 | 5.0 | 13.0 | 0.00 | 0.00 | 0.00 | 78 | 1009.9 |
| 20260504203658 | 26 | 330 | 3.0 | 13.0 | 0.00 | 0.00 | 0.00 | 78 | 1009.9 |
| 20260504203158 | 26 | 309 | 7.0 | 12.0 | 0.00 | 0.00 | 0.00 | 79 | 1009.7 |
| 20260504202658 | 26 | 317 | 4.0 | 11.0 | 0.00 | 0.00 | 0.00 | 80 | 1009.7 |
| 20260504202158 | 27 | 303 | 7.0 | 10.0 | 0.00 | 0.00 | 0.00 | 79 | 1009.6 |
| 20260504201658 | 27 | 337 | 3.0 | 9.0 | 0.00 | 0.00 | 0.00 | 79 | 1009.4 |
| 20260504201559 | 27 | 309 | 5.0 | 9.0 | 0.00 | 0.00 | 0.00 | 80 | 1009.6 |
| 20260504201158 | 27 | 275 | 3.0 | 10.0 | 0.00 | 0.00 | 0.00 | 81 | 1009.6 |
| 20260504200658 | 27 | 326 | 3.0 | 8.0 | 0.00 | 0.00 | 0.00 | 82 | 1009.3 |
| 20260504200459 | 27 | 291 | 4.0 | 8.0 | 0.00 | 0.00 | 0.00 | 82 | 1009.3 |
| 20260504200158 | 27 | 306 | 4.0 | 9.0 | 0.00 | 0.00 | 0.00 | 82 | 1009.2 |
| 20260504195658 | 28 | 307 | 4.0 | 9.0 | 0.00 | 0.00 | 0.00 | 82 | 1009.3 |
| 20260504195359 | 28 | 333 | 4.0 | 9.0 | 0.00 | 0.00 | 0.00 | 82 | 1009.3 |
| 20260504195158 | 28 | 334 | 3.0 | 9.0 | 0.00 | 0.00 | 0.00 | 83 | 1009.3 |
| 20260504194658 | 28 | 296 | 2.0 | 7.0 | 0.00 | 0.00 | 0.00 | 83 | 1009.2 |
| 20260504194259 | 28 | 286 | 4.0 | 10.0 | 0.00 | 0.00 | 0.00 | 82 | 1009.3 |
| 20260504194158 | 28 | 307 | 4.0 | 10.0 | 0.00 | 0.00 | 0.00 | 82 | 1009.3 |
| 20260504193658 | 28 | 277 | 5.0 | 7.0 | 0.00 | 0.00 | 0.00 | 83 | 1009.2 |
| 20260504193158 | 28 | 307 | 2.0 | 9.0 | 0.00 | 0.00 | 0.00 | 83 | 1009.2 |
| 20260504192658 | 28 | 284 | 5.0 | 9.0 | 0.00 | 0.00 | 0.00 | 83 | 1009.1 |
| 20260504192158 | 28 | 320 | 6.0 | 11.0 | 0.00 | 0.00 | 0.00 | 81 | 1009.0 |
| 20260504192059 | 29 | 320 | 5.0 | 11.0 | 0.00 | 0.00 | 0.00 | 81 | 1009.0 |
| 20260504191658 | 29 | 322 | 4.0 | 7.0 | 0.00 | 0.00 | 0.00 | 84 | 1009.0 |
| 20260504191158 | 29 | 293 | 1.0 | 6.0 | 0.00 | 0.00 | 0.00 | 84 | 1008.9 |
| 20260504190959 | 29 | 313 | 3.0 | 8.0 | 0.00 | 0.00 | 0.00 | 84 | 1008.9 |
| 20260504190658 | 29 | 306 | 2.0 | 8.0 | 0.00 | 0.00 | 0.00 | 84 | 1008.9 |
| 20260504190158 | 30 | 343 | 2.0 | 8.0 | 0.00 | 0.00 | 0.00 | 82 | 1008.9 |
| 20260504185859 | 30 | 330 | 4.0 | 8.0 | 0.00 | 0.00 | 0.00 | 82 | 1008.9 |
| 20260504185658 | 30 | 327 | 5.0 | 6.0 | 0.00 | 0.00 | 0.00 | 82 | 1008.8 |
| 20260504185158 | 31 | 330 | 2.0 | 6.0 | 0.00 | 0.00 | 0.00 | 81 | 1008.7 |
| 20260504184759 | 32 | 319 | 3.0 | 7.0 | 0.00 | 0.00 | 0.00 | 81 | 1008.7 |
| 20260504184658 | 32 | 310 | 1.0 | 7.0 | 0.00 | 0.00 | 0.00 | 81 | 1008.7 |
| 20260504184158 | 31 | 323 | 3.0 | 5.0 | 0.00 | 0.00 | 0.00 | 86 | 1008.7 |
| 20260504183658 | 31 | 320 | 3.0 | 4.0 | 0.00 | 0.00 | 0.00 | 85 | 1008.5 |
| 20260504183158 | 32 | 316 | 2.0 | 7.0 | 0.00 | 0.00 | 0.00 | 85 | 1008.5 |
| 20260504182658 | 32 | 306 | 2.0 | 4.0 | 0.00 | 0.00 | 0.00 | 84 | 1008.5 |
| 20260504182559 | 32 | 302 | 3.0 | 4.0 | 0.00 | 0.00 | 0.00 | 85 | 1008.5 |
| 20260504182158 | 32 | 310 | 1.0 | 6.0 | 0.00 | 0.00 | 0.00 | 85 | 1008.5 |
| 20260504181658 | 32 | 298 | 0.0 | 5.0 | 0.00 | 0.00 | 0.00 | 87 | 1008.4 |
| 20260504181459 | 32 | 309 | 1.0 | 5.0 | 0.00 | 0.00 | 0.00 | 87 | 1008.4 |
| 20260504181158 | 31 | 315 | 1.0 | 7.0 | 0.00 | 0.00 | 0.00 | 87 | 1008.4 |
| 20260504180658 | 31 | 307 | 2.0 | 7.0 | 0.00 | 0.00 | 0.00 | 86 | 1008.4 |
| 20260504180359 | 31 | 310 | 2.0 | 4.0 | 0.00 | 0.00 | 0.00 | 87 | 1008.4 |
| 20260504180158 | 31 | 312 | 1.0 | 9.0 | 0.00 | 0.00 | 0.00 | 87 | 1008.3 |
| 20260504175658 | 30 | 340 | 3.0 | 7.0 | 0.00 | 0.00 | 0.00 | 89 | 1008.3 |
| 20260504175259 | 30 | 22 | 1.0 | 7.0 | 0.00 | 0.00 | 0.00 | 88 | 1008.2 |
| 20260504175158 | 30 | 312 | 5.0 | 7.0 | 0.00 | 0.00 | 0.00 | 89 | 1008.2 |
| 20260504174658 | 30 | 337 | 2.0 | 5.0 | 0.00 | 0.00 | 0.00 | 91 | 1008.2 |
| 20260504174158 | 30 | 322 | 3.0 | 8.0 | 0.00 | 0.00 | 0.00 | 92 | 1008.2 |
| 20260504173658 | 29 | 331 | 2.0 | 7.0 | 0.00 | 0.00 | 0.00 | 92 | 1008.2 |
| 20260504173158 | 29 | 319 | 5.0 | 9.0 | 0.00 | 0.00 | 0.00 | 91 | 1008.2 |
| 20260504173059 | 29 | 313 | 7.0 | 9.0 | 0.00 | 0.00 | 0.00 | 91 | 1008.1 |
| 20260504172658 | 30 | 337 | 3.0 | 9.0 | 0.00 | 0.00 | 0.00 | 90 | 1008.2 |
| 20260504172158 | 30 | 286 | 4.0 | 8.0 | 0.00 | 0.00 | 0.00 | 90 | 1008.0 |
| 20260504171959 | 31 | 322 | 1.0 | 6.0 | 0.00 | 0.00 | 0.00 | 91 | 1008.0 |
| 20260504171658 | 31 | 303 | 1.0 | 4.0 | 0.00 | 0.00 | 0.00 | 91 | 1007.9 |
| 20260504171158 | 31 | 295 | 2.0 | 5.0 | 0.00 | 0.00 | 0.00 | 90 | 1007.9 |
| 20260504170859 | 31 | 338 | 4.0 | 5.0 | 0.00 | 0.00 | 0.00 | 90 | 1008.0 |
| 20260504170658 | 31 | 326 | 4.0 | 4.0 | 0.00 | 0.00 | 0.00 | 90 | 1008.0 |
| 20260504170158 | 31 | 334 | 3.0 | 6.0 | 0.00 | 0.00 | 0.00 | 90 | 1008.0 |
| 20260504160259 | 32 | 284 | 0.0 | 4.0 | 0.00 | 0.00 | 0.00 | 88 | 1007.8 |
| 20260504160158 | 32 | 317 | 4.0 | 5.0 | 0.00 | 0.00 | 0.00 | 88 | 1007.8 |
| 20260504150759 | 35 | 306 | 4.0 | 11.0 | 0.00 | 0.00 | 0.00 | 80 | 1007.9 |
| 20260504150658 | 35 | 322 | 4.0 | 11.0 | 0.00 | 0.00 | 0.00 | 79 | 1007.9 |
| 20260504150158 | 35 | 299 | 4.0 | 7.0 | 0.00 | 0.00 | 0.00 | 80 | 1007.9 |
| 20260504141259 | 37 | 300 | 7.0 | 12.0 | 0.00 | 0.00 | 0.00 | 72 | 1008.3 |
| 20260504141158 | 37 | 305 | 4.0 | 12.0 | 0.00 | 0.00 | 0.00 | 73 | 1008.4 |
| 20260504140658 | 36 | 331 | 4.0 | 13.0 | 0.00 | 0.00 | 0.00 | 73 | 1008.4 |
| 20260504140158 | 36 | 253 | 10.0 | 15.0 | 0.00 | 0.00 | 0.00 | 73 | 1008.4 |
| 20260504130658 | 40 | 324 | 7.0 | 14.0 | 0.00 | 0.00 | 0.00 | 54 | 1008.8 |
| 20260504130158 | 41 | 293 | 7.0 | 13.0 | 0.00 | 0.00 | 0.00 | 53 | 1008.7 |
| 20260504120159 | 40 | 272 | 4.0 | 11.0 | 0.00 | 0.00 | 0.00 | 48 | 1008.8 |
| 20260504110659 | 40 | 293 | 8.0 | 12.0 | 0.00 | 0.00 | 0.00 | 45 | 1008.9 |
| 20260504110600 | 40 | 299 | 5.0 | 12.0 | 0.00 | 0.00 | 0.00 | 44 | 1009.0 |
| 20260504110159 | 40 | 334 | 3.0 | 14.0 | 0.00 | 0.00 | 0.00 | 44 | 1009.0 |
| 20260504100159 | 39 | 310 | 10.0 | 12.0 | 0.00 | 0.00 | 0.00 | 46 | 1009.0 |
| 20260504081659 | 37 | 277 | 16.0 | 24.0 | 0.00 | 0.00 | 0.00 | 50 | 1008.8 |
| 20260504081159 | 37 | 289 | 7.0 | 19.0 | 0.00 | 0.00 | 0.00 | 51 | 1008.7 |
| 20260504081000 | 37 | 310 | 9.0 | 16.0 | 0.00 | 0.00 | 0.00 | 51 | 1008.7 |
| 20260504080659 | 37 | 306 | 8.0 | 22.0 | 0.00 | 0.00 | 0.00 | 51 | 1008.5 |
| 20260504080159 | 37 | 295 | 8.0 | 18.0 | 0.00 | 0.00 | 0.00 | 51 | 1008.5 |
| 20260504070400 | 35 | 327 | 5.0 | 9.0 | 0.00 | 0.00 | 0.00 | 62 | 1008.4 |
| 20260504070159 | 35 | 323 | 4.0 | 9.0 | 0.00 | 0.00 | 0.00 | 62 | 1008.4 |
| 20260504060159 | 32 | 315 | 7.0 | 9.0 | 0.00 | 0.00 | 0.00 | 67 | 1008.5 |